Terminal Aerodrome Forecast
Issued by NWS

Home | Current Version | Previous Version | Text Only | Print | Product List | Glossary On
Versions: 1 2 3 4 5 6 7 8 9 10 11 12 13 14 15 16 17 18 19 20 21 22 23 24 25 26 27 28 29 30 31 32 33 34 35 36 37 38 39 40
000
FTUS45 KBOU 181746
TAFAPA
TAF
KAPA 181746Z 1818/1918 16012KT P6SM SCT120 SCT200
     FM182000 23014G24KT P6SM FEW120 BKN200
     FM190200 17011KT P6SM SCT120 BKN200
     FM190500 12008KT P6SM FEW080 BKN160
     FM190900 03012KT P6SM FEW025 SCT050 BKN120
     FM191100 05012G18KT 3SM BR BKN006 OVC015
      TEMPO 1911/1915 1SM -FZDZ BR VV004
     FM191500 11014KT 2SM -FZDZ BR BKN003 OVC007=

USA.gov is the U.S. government's official web portal to all federal, state and local government web resources and services.